Regional Weather Roundup
Issued by NWS

Home | Current Version | Previous Version | Text Only | Print | Product List | Glossary Off
Versions: 1 2 3 4 5 6 7 8 9 10 11 12 13 14 15 16 17 18 19 20 21 22 23 24 25 26 27 28

000
ASUS45 KCYS 301010
RWRWY

WYOMING REGIONAL WEATHER ROUNDUP
NATIONAL WEATHER SERVICE CHEYENNE WY
400 AM MDT THU OCT 30 2014

NOTE:  "FAIR" INDICATES FEW OR NO CLOUDS BELOW 12,000 FEET
WITH NO SIGNIFICANT WEATHER AND/OR OBSTRUCTIONS TO VISIBILITY.

WYZ001-301100-
YELLOWSTONE NATIONAL PARK

CITY           SKY/WX    TMP DP  RH WIND       PRES   REMARKS
LK YELLOWSTONE   N/A     24  21  88 CALM      30.38
W YELLOWSTONE  NOT AVBL

$$
WYZ002>013-054>058-071-098>099-301100-
NORTHERN WYOMING

CITY           SKY/WX    TMP DP  RH WIND       PRES   REMARKS
JACKSON        CLOUDY    27  25  93 N7        30.35S WCI  19
CODY           PTCLDY    34  25  69 S3        30.28R
GREYBULL       CLEAR     33  22  63 E6        30.27R WCI  28
WORLAND        CLEAR     30  20  66 S9        30.27R WCI  22
SHERIDAN       CLEAR     38  26  62 CALM      30.26R
BUFFALO        CLEAR     41  24  51 W10       30.28R
GILLETTE       CLEAR     37  26  64 W13       30.24R WCI  29
HULETT         FAIR      37  30  75 SW8       30.24R WCI  31
NEWCASTLE      FAIR      34  28  80 N9        30.25R WCI  26

$$
WYZ014>020-022>026-101>103-301100-
CENTRAL WYOMING

CITY           SKY/WX    TMP DP  RH WIND       PRES   REMARKS
BIG PINEY      CLEAR     21  17  84 E6        30.36F WCI  13
PINEDALE       SUNNY     21  19  93 W6        30.37S WCI  14
DUBOIS         FAIR      30  27  86 NW15      30.32S WCI  19
LANDER         CLEAR     39  23  52 CALM      30.28S
RIVERTON       CLEAR     39  25  57 W10       30.29S WCI  32
CASPER         CLEAR     24  17  74 W5        30.30S WCI  18
DOUGLAS        CLEAR     36  22  56 N8        30.30S WCI  30

$$
WYZ021-027>030-104>119-301100-
SOUTHERN WYOMING

CITY           SKY/WX    TMP DP  RH WIND       PRES   REMARKS
EVANSTON       PTCLDY    40  24  53 SE8       30.36S WCI  34
KEMMERER       SUNNY     32  28  86 N7        30.37F WCI  26
FORT BRIDGER   FAIR      40  25  55 W7        30.39S
ROCK SPRINGS   PTCLDY    38  29  70 W3        30.36S
RAWLINS        PTCLDY    35  24  64 SW9       30.34S WCI  28
SARATOGA       FAIR      36  27  69 W8        30.36R WCI  29
LARAMIE        CLOUDY    36  25  64 E6        30.33R WCI  31
CHEYENNE       PTCLDY    43  23  45 N9        30.30R
TORRINGTON     CLEAR     36  23  59 NW7       30.26R WCI  30
PINE BLUFFS    FAIR      34  27  75 NW8       30.29R WCI  27

$$



USA.gov is the U.S. government's official web portal to all federal, state and local government web resources and services.